RYR5ZC LEPA-EGCC

Flight info

Callsign RYR5ZC
Flight time N/A
Altitude 34000
Route DRAGO DCT PAPOS DCT UMURE N863 GIROM DCT AGN DCT SECHE DCT UVELI DCT CNA DCT TUPAR UN861 ANG DCT AKIKI UN867 AVANT UM184 HEMEL T420 ELVOS
Aircraft B738/M-SDE2E3FGHIRWXY/LB1

Departure

Time 2026-05-04 21:00
Airport Palma de Mallorca Airport (LEPA)

Arrival

Time N/A
Airport Manchester Airport (EGCC)
Time Latitude Longitude Altitude Speed Heading
2026-05-04 20:04 39.55131 2.72971 29 ft 0 kts 164°
2026-05-04 20:47 39.55132 2.72971 29 ft 0 kts 164°
2026-05-04 20:53 39.55139 2.72968 29 ft 4 kts 164°
2026-05-04 20:54 39.55165 2.72958 29 ft 3 kts 164°
2026-05-04 20:54 39.55185 2.72949 29 ft 4 kts 143°
2026-05-04 20:54 39.55196 2.72928 29 ft 4 kts 73°
2026-05-04 20:54 39.55185 2.72899 29 ft 4 kts 58°
2026-05-04 20:55 39.55182 2.72894 29 ft 1 kts 58°
2026-05-04 20:57 39.55189 2.72908 29 ft 7 kts 58°
2026-05-04 20:57 39.55236 2.73007 29 ft 17 kts 55°
2026-05-04 20:57 39.55337 2.73003 29 ft 16 kts 329°
2026-05-04 20:57 39.55431 2.73025 29 ft 16 kts 56°
2026-05-04 20:58 39.55486 2.73144 29 ft 15 kts 59°
2026-05-04 20:58 39.55540 2.73256 29 ft 15 kts 59°
2026-05-04 20:58 39.55600 2.73383 29 ft 18 kts 58°
2026-05-04 20:58 39.55674 2.73539 29 ft 23 kts 58°
2026-05-04 20:59 39.55767 2.73735 29 ft 27 kts 58°
2026-05-04 20:59 39.55851 2.73908 29 ft 8 kts 38°
2026-05-04 20:59 39.55903 2.73893 29 ft 8 kts 330°
2026-05-04 20:59 39.55951 2.73856 29 ft 9 kts 329°
2026-05-04 21:00 39.55997 2.73782 29 ft 16 kts 261°
2026-05-04 21:00 39.55850 2.73461 29 ft 83 kts 238°
2026-05-04 21:00 39.55401 2.72517 41 ft 159 kts 239°
2026-05-04 21:00 39.54773 2.71186 699 ft 182 kts 238°
2026-05-04 21:01 39.54151 2.69847 2112 ft 163 kts 238°
2026-05-04 21:01 39.53523 2.68589 3051 ft 172 kts 237°
2026-05-04 21:01 39.52838 2.67256 3324 ft 198 kts 237°
2026-05-04 21:01 39.52032 2.65689 3661 ft 218 kts 237°
2026-05-04 21:02 39.51155 2.63982 3992 ft 241 kts 238°
2026-05-04 21:02 39.50207 2.62132 4678 ft 251 kts 237°
2026-05-04 21:02 39.49230 2.60222 5561 ft 255 kts 238°
2026-05-04 21:02 39.48248 2.58301 6470 ft 257 kts 238°
2026-05-04 21:03 39.47265 2.56353 7348 ft 258 kts 241°
2026-05-04 21:03 39.46830 2.54139 8244 ft 260 kts 272°
2026-05-04 21:03 39.47316 2.51869 9105 ft 268 kts 292°
2026-05-04 21:03 39.48390 2.49880 9872 ft 279 kts 306°
2026-05-04 21:04 39.49710 2.48009 10475 ft 291 kts 308°
2026-05-04 21:04 39.51164 2.46015 10677 ft 316 kts 309°
2026-05-04 21:04 39.52709 2.43914 11231 ft 326 kts 309°
2026-05-04 21:04 39.54282 2.41777 12035 ft 329 kts 308°
2026-05-04 21:05 39.55854 2.39630 12860 ft 332 kts 308°